Tracking 20376 objects as of 22-Feb-2020
HD Live streaming from Space Station
objects crossing your sky now
Track the group of recently launched Starlink satellites

STARLINK-1088

Track STARLINK-1088 now!
10-day predictions
STARLINK-1088 is classified as:


NORAD ID: 44966
Int'l Code: 2020-001BE
Perigee: 352.4 km
Apogee: 361.5 km
Inclination: 53.0 °
Period: 91.5 minutes
Semi major axis: 6727 km
RCS: Unknown
Launch date: January 7, 2020
Source: United States (US)
Launch site: AIR FORCE EASTERN TEST RANGE (AFETR)
aabbcc
Your satellite tracking list
Your tracking list is empty




NASA's NSSDC Master Catalog

Two Line Element Set (TLE):
1 44966U 20001BE  20052.91667824  .00014039  00000-0  10420-3 0  9991
2 44966  52.9958 168.8689 0006757   2.8535  31.6367 15.73196927  7231
Source of the keplerian elements: AFSPC